Location: Alfortville
(48.8058°N, 2.4204°E)
Time: 13:15:18
(UTC+00:00)

Meteor 1-19 Rocket - Pass Details

Date: 16 December 2023
Orbit: 806 x 928 km, 81.2° (Epoch: 01 March)

Event Time Altitude Azimuth Distance (km) Brightness Sun altitude
Exits shadow 05:13:21 - 349° (N) 2,911 6.8 -22.5°
Reaches altitude 10° 05:14:08 10° 350° (N) 2,614 6.5 -22.4°
Maximum altitude 05:20:07 81° 78° (ENE) 913 4.4 -21.4°
Drops below altitude 10° 05:25:53 10° 166° (SSE) 2,521 7.0 -20.5°
Sets 05:28:17 0° 167° (SSE) 3,437 7.7 -20.1°
